Time,TemperatureF,DewpointF,PressureIn,WindDirection,WindDirectionDegrees,WindSpeedMPH,WindSpeedGustMPH,Humidity,HourlyPrecipIn,Conditions,Clouds,dailyrainin,SoftwareType,DateUTC
2013-05-26 00:01:00,53.9,46.9,29.91,SSW,200,1.0,1.0,77,0.00,,---,0.00,VWS V14.01,2013-05-26 07:01:00,
2013-05-26 00:11:00,53.5,46.5,29.91,SSW,200,1.0,1.0,77,0.00,,---,0.00,VWS V14.01,2013-05-26 07:11:00,
2013-05-26 00:16:00,53.3,46.3,29.91,SSW,200,1.0,1.0,77,0.00,,---,0.00,VWS V14.01,2013-05-26 07:16:00,
2013-05-26 00:21:00,53.2,46.5,29.91,SSW,200,1.0,1.0,78,0.00,,---,0.00,VWS V14.01,2013-05-26 07:21:00,
2013-05-26 00:26:00,53.1,46.4,29.91,SSW,200,1.0,1.0,78,0.00,,---,0.00,VWS V14.01,2013-05-26 07:26:00,
2013-05-26 00:36:00,52.8,46.1,29.91,SSW,200,1.0,1.0,78,0.00,,---,0.00,VWS V14.01,2013-05-26 07:36:00,
2013-05-26 00:41:00,52.6,46.0,29.91,SSW,200,1.0,1.0,78,0.00,,---,0.00,VWS V14.01,2013-05-26 07:41:00,
2013-05-26 00:51:00,52.3,46.0,29.90,SSW,200,1.0,1.0,79,0.00,,---,0.00,VWS V14.01,2013-05-26 07:51:00,
2013-05-26 00:56:00,52.2,45.9,29.90,SSW,200,1.0,1.0,79,0.00,,---,0.00,VWS V14.01,2013-05-26 07:56:00,
2013-05-26 01:01:00,52.2,45.9,29.91,SSW,200,1.0,1.0,79,0.00,,---,0.00,VWS V14.01,2013-05-26 08:01:00,
2013-05-26 01:11:00,51.9,45.6,29.91,SSW,200,1.0,1.0,79,0.00,,---,0.00,VWS V14.01,2013-05-26 08:11:00,
2013-05-26 01:16:00,51.7,45.4,29.90,SSW,200,1.0,1.0,79,0.00,,---,0.00,VWS V14.01,2013-05-26 08:16:00,
2013-05-26 01:26:00,51.6,45.3,29.90,SSW,200,1.0,1.0,79,0.00,,---,0.00,VWS V14.01,2013-05-26 08:26:00,
2013-05-26 01:31:00,51.4,45.5,29.91,SSW,200,1.0,1.0,80,0.00,,---,0.00,VWS V14.01,2013-05-26 08:31:00,
2013-05-26 01:36:00,51.4,45.5,29.91,SSW,200,1.0,1.0,80,0.00,,---,0.00,VWS V14.01,2013-05-26 08:36:00,
2013-05-26 01:41:00,51.3,45.3,29.91,SSW,200,1.0,1.0,80,0.00,,---,0.00,VWS V14.01,2013-05-26 08:41:00,
2013-05-26 01:46:00,51.1,45.2,29.91,SSW,200,1.0,1.0,80,0.00,,---,0.00,VWS V14.01,2013-05-26 08:46:00,
2013-05-26 01:56:00,50.8,44.9,29.91,SSW,200,1.0,1.0,80,0.00,,---,0.00,VWS V14.01,2013-05-26 08:56:00,
2013-05-26 02:01:00,50.7,45.1,29.90,SSW,200,1.0,1.0,81,0.00,,---,0.00,VWS V14.01,2013-05-26 09:01:00,
2013-05-26 02:06:00,50.5,44.9,29.90,SSW,200,1.0,1.0,81,0.00,,---,0.00,VWS V14.01,2013-05-26 09:06:00,
2013-05-26 02:11:00,50.5,44.9,29.90,SSW,200,1.0,1.0,81,0.00,,---,0.00,VWS V14.01,2013-05-26 09:11:00,
2013-05-26 02:21:00,50.4,45.1,29.90,SSW,200,1.0,1.0,82,0.00,,---,0.00,VWS V14.01,2013-05-26 09:21:00,
2013-05-26 02:31:00,50.2,44.9,29.90,SSW,200,1.0,1.0,82,0.00,,---,0.00,VWS V14.01,2013-05-26 09:31:00,
2013-05-26 02:36:00,50.2,44.9,29.90,SSW,200,1.0,1.0,82,0.00,,---,0.00,VWS V14.01,2013-05-26 09:36:00,
2013-05-26 02:41:00,50.2,44.9,29.90,SSW,200,1.0,1.0,82,0.00,,---,0.00,VWS V14.01,2013-05-26 09:41:00,
2013-05-26 02:46:00,50.1,44.8,29.90,SSW,200,1.0,1.0,82,0.00,,---,0.00,VWS V14.01,2013-05-26 09:46:00,
2013-05-26 02:51:00,50.1,44.8,29.90,SSW,200,1.0,1.0,82,0.00,,---,0.00,VWS V14.01,2013-05-26 09:51:00,
2013-05-26 03:01:00,49.8,44.5,29.90,SSW,200,1.0,1.0,82,0.00,,---,0.00,VWS V14.01,2013-05-26 10:01:00,
2013-05-26 03:06:00,49.6,44.7,29.90,SSW,200,1.0,1.0,83,0.00,,---,0.00,VWS V14.01,2013-05-26 10:06:00,
2013-05-26 03:11:00,49.6,44.7,29.90,SSW,200,1.0,1.0,83,0.00,,---,0.00,VWS V14.01,2013-05-26 10:11:00,
2013-05-26 03:16:00,49.5,44.6,29.90,SSW,200,1.0,1.0,83,0.00,,---,0.00,VWS V14.01,2013-05-26 10:16:00,
2013-05-26 03:21:00,49.4,44.5,29.90,SSW,200,1.0,1.0,83,0.00,,---,0.00,VWS V14.01,2013-05-26 10:21:00,
2013-05-26 03:31:00,49.1,44.2,29.90,SSW,200,1.0,1.0,83,0.00,,---,0.00,VWS V14.01,2013-05-26 10:31:00,
2013-05-26 03:36:00,48.9,44.0,29.90,SSW,200,1.0,1.0,83,0.00,,---,0.00,VWS V14.01,2013-05-26 10:36:00,
2013-05-26 03:46:00,48.8,43.9,29.90,SSW,200,1.0,1.0,83,0.00,,---,0.00,VWS V14.01,2013-05-26 10:46:00,
2013-05-26 03:51:00,48.6,43.7,29.90,SSW,200,1.0,1.0,83,0.00,,---,0.00,VWS V14.01,2013-05-26 10:51:00,
2013-05-26 03:56:00,48.6,43.7,29.90,SSW,200,1.0,1.0,83,0.00,,---,0.00,VWS V14.01,2013-05-26 10:56:00,
2013-05-26 04:01:00,48.6,43.7,29.90,SSW,200,1.0,1.0,83,0.00,,---,0.00,VWS V14.01,2013-05-26 11:01:00,
2013-05-26 04:06:00,48.5,43.9,29.90,SSW,200,1.0,1.0,84,0.00,,---,0.00,VWS V14.01,2013-05-26 11:06:00,
2013-05-26 04:11:00,48.5,43.9,29.90,SSW,200,1.0,1.0,84,0.00,,---,0.00,VWS V14.01,2013-05-26 11:11:00,
2013-05-26 04:16:00,48.3,43.7,29.90,SSW,200,1.0,1.0,84,0.00,,---,0.00,VWS V14.01,2013-05-26 11:16:00,
2013-05-26 04:21:00,48.3,43.7,29.90,SSW,200,1.0,1.0,84,0.00,,---,0.00,VWS V14.01,2013-05-26 11:21:00,
2013-05-26 04:31:00,48.0,43.4,29.91,SSW,200,1.0,1.0,84,0.00,,---,0.00,VWS V14.01,2013-05-26 11:31:00,
2013-05-26 04:41:00,47.9,43.3,29.91,SSW,200,1.0,1.0,84,0.00,,---,0.00,VWS V14.01,2013-05-26 11:41:00,
2013-05-26 04:46:00,47.7,43.1,29.90,SSW,200,1.0,1.0,84,0.00,,---,0.00,VWS V14.01,2013-05-26 11:46:00,
2013-05-26 04:51:00,47.7,43.1,29.90,SSW,200,1.0,1.0,84,0.00,,---,0.00,VWS V14.01,2013-05-26 11:51:00,
2013-05-26 04:56:00,47.6,43.0,29.90,SSW,200,1.0,1.0,84,0.00,,---,0.00,VWS V14.01,2013-05-26 11:56:00,
2013-05-26 05:01:00,47.4,42.8,29.90,SSW,200,1.0,1.0,84,0.00,,---,0.00,VWS V14.01,2013-05-26 12:01:00,
2013-05-26 05:11:00,47.3,42.7,29.90,SSW,200,1.0,1.0,84,0.00,,---,0.00,VWS V14.01,2013-05-26 12:11:00,
2013-05-26 05:21:00,47.3,43.0,29.90,SSW,200,1.0,1.0,85,0.00,,---,0.00,VWS V14.01,2013-05-26 12:21:00,
2013-05-26 05:31:00,47.1,42.8,29.90,SSW,200,1.0,1.0,85,0.00,,---,0.00,VWS V14.01,2013-05-26 12:31:00,
2013-05-26 05:36:00,47.0,42.7,29.90,SSW,200,1.0,1.0,85,0.00,,---,0.00,VWS V14.01,2013-05-26 12:36:00,
2013-05-26 05:41:00,47.0,42.7,29.90,SSW,200,1.0,1.0,85,0.00,,---,0.00,VWS V14.01,2013-05-26 12:41:00,
2013-05-26 05:51:00,46.8,42.5,29.90,SSW,200,1.0,1.0,85,0.00,,---,0.00,VWS V14.01,2013-05-26 12:51:00,
2013-05-26 05:56:00,46.8,42.5,29.90,SSW,200,1.0,1.0,85,0.00,,---,0.00,VWS V14.01,2013-05-26 12:56:00,
2013-05-26 06:06:00,46.7,42.7,29.90,SSW,200,1.0,1.0,86,0.00,,---,0.00,VWS V14.01,2013-05-26 13:06:00,
2013-05-26 06:11:00,46.5,42.5,29.90,SSW,200,1.0,1.0,86,0.00,,---,0.00,VWS V14.01,2013-05-26 13:11:00,
2013-05-26 06:16:00,46.5,42.5,29.91,SSW,200,1.0,1.0,86,0.00,,---,0.00,VWS V14.01,2013-05-26 13:16:00,
2013-05-26 06:21:00,46.5,42.5,29.91,SSW,200,1.0,1.0,86,0.00,,---,0.00,VWS V14.01,2013-05-26 13:21:00,
2013-05-26 06:26:00,46.7,42.7,29.91,SSW,200,1.0,1.0,86,0.00,,---,0.00,VWS V14.01,2013-05-26 13:26:00,
2013-05-26 06:31:00,46.8,42.8,29.91,SSW,200,1.0,1.0,86,0.00,,---,0.00,VWS V14.01,2013-05-26 13:31:00,
2013-05-26 06:36:00,47.0,43.3,29.91,SSW,200,1.0,1.0,87,0.00,,---,0.00,VWS V14.01,2013-05-26 13:36:00,
2013-05-26 06:41:00,47.4,43.7,29.91,SSW,200,1.0,1.0,87,0.00,,---,0.00,VWS V14.01,2013-05-26 13:41:00,
2013-05-26 06:51:00,48.5,45.1,29.92,SSW,200,1.0,1.0,88,0.00,,---,0.00,VWS V14.01,2013-05-26 13:51:00,
2013-05-26 06:56:00,48.8,45.4,29.92,SSW,200,1.0,1.0,88,0.00,,---,0.00,VWS V14.01,2013-05-26 13:56:00,
2013-05-26 07:01:00,49.2,45.8,29.92,SSW,200,1.0,1.0,88,0.00,,---,0.00,VWS V14.01,2013-05-26 14:01:00,
2013-05-26 07:06:00,49.5,46.4,29.92,SSW,200,1.0,1.0,89,0.00,,---,0.00,VWS V14.01,2013-05-26 14:06:00,
2013-05-26 07:11:00,49.8,46.7,29.92,SSW,200,1.0,1.0,89,0.00,,---,0.00,VWS V14.01,2013-05-26 14:11:00,
2013-05-26 07:21:00,51.1,48.0,29.93,SSW,200,1.0,1.0,89,0.00,,---,0.00,VWS V14.01,2013-05-26 14:21:00,
2013-05-26 07:26:00,52.0,49.2,29.93,SSW,200,1.0,1.0,90,0.00,,---,0.00,VWS V14.01,2013-05-26 14:26:00,
2013-05-26 07:36:00,53.3,50.5,29.93,SSW,200,1.0,1.0,90,0.00,,---,0.00,VWS V14.01,2013-05-26 14:36:00,
2013-05-26 07:41:00,54.1,51.2,29.93,SSW,200,1.0,1.0,90,0.00,,---,0.00,VWS V14.01,2013-05-26 14:41:00,
2013-05-26 07:46:00,54.8,51.9,29.93,SSW,200,1.0,1.0,90,0.00,,---,0.00,VWS V14.01,2013-05-26 14:46:00,
2013-05-26 07:56:00,56.2,53.3,29.93,SSW,200,1.0,1.0,90,0.00,,---,0.00,VWS V14.01,2013-05-26 14:56:00,
2013-05-26 08:01:00,56.5,53.3,29.93,SSW,200,1.0,1.0,89,0.00,,---,0.00,VWS V14.01,2013-05-26 15:01:00,
2013-05-26 08:06:00,56.9,53.7,29.93,SSW,200,1.0,1.0,89,0.00,,---,0.00,VWS V14.01,2013-05-26 15:06:00,
2013-05-26 08:11:00,57.2,53.4,29.93,SSW,200,1.0,1.0,87,0.00,,---,0.00,VWS V14.01,2013-05-26 15:11:00,
2013-05-26 08:16:00,58.3,53.5,29.93,West,268,0.0,1.0,84,0.00,,---,0.00,VWS V14.01,2013-05-26 15:16:00,
2013-05-26 08:26:00,60.2,53.0,29.93,West,267,0.0,0.0,77,0.00,,---,0.00,VWS V14.01,2013-05-26 15:26:00,
2013-05-26 08:31:00,60.9,52.9,29.94,West,267,0.0,0.0,75,0.00,,---,0.00,VWS V14.01,2013-05-26 15:31:00,
2013-05-26 08:36:00,61.6,52.9,29.94,SSW,200,0.0,0.0,73,0.00,,---,0.00,VWS V14.01,2013-05-26 15:36:00,
2013-05-26 08:41:00,61.8,52.7,29.94,SSW,200,0.0,0.0,72,0.00,,---,0.00,VWS V14.01,2013-05-26 15:41:00,
2013-05-26 08:51:00,62.7,52.4,29.94,SSW,212,0.0,0.0,69,0.00,,---,0.00,VWS V14.01,2013-05-26 15:51:00,
2013-05-26 08:56:00,63.2,52.9,29.94,SSE,161,0.0,0.0,69,0.00,,---,0.00,VWS V14.01,2013-05-26 15:56:00,
2013-05-26 09:01:00,64.3,53.5,29.94,South,182,0.0,0.0,68,0.00,,---,0.00,VWS V14.01,2013-05-26 16:01:00,
2013-05-26 09:06:00,64.2,53.0,29.94,South,182,0.0,0.0,67,0.00,,---,0.00,VWS V14.01,2013-05-26 16:06:00,
2013-05-26 09:16:00,65.2,53.6,29.94,SSW,212,0.0,0.0,66,0.00,,---,0.00,VWS V14.01,2013-05-26 16:16:00,
2013-05-26 09:21:00,64.8,53.2,29.94,SSW,212,0.0,0.0,66,0.00,,---,0.00,VWS V14.01,2013-05-26 16:21:00,
2013-05-26 09:26:00,65.5,53.8,29.94,SSW,212,0.0,0.0,66,0.00,,---,0.00,VWS V14.01,2013-05-26 16:26:00,
2013-05-26 09:31:00,65.8,53.7,29.94,SSW,212,0.0,0.0,65,0.00,,---,0.00,VWS V14.01,2013-05-26 16:31:00,
2013-05-26 09:41:00,67.4,53.9,29.94,South,181,0.0,0.0,62,0.00,,---,0.00,VWS V14.01,2013-05-26 16:41:00,
2013-05-26 09:46:00,67.8,53.9,29.94,WSW,248,0.0,0.0,61,0.00,,---,0.00,VWS V14.01,2013-05-26 16:46:00,
2013-05-26 09:56:00,67.4,53.0,29.94,SSW,213,0.0,0.0,60,0.00,,---,0.00,VWS V14.01,2013-05-26 16:56:00,
2013-05-26 10:06:00,68.8,53.4,29.94,SW,224,0.0,0.0,58,0.00,,---,0.00,VWS V14.01,2013-05-26 17:06:00,
2013-05-26 10:16:00,69.6,52.7,29.93,West,274,0.0,3.0,55,0.00,,---,0.00,VWS V14.01,2013-05-26 17:16:00,
2013-05-26 10:21:00,69.4,52.5,29.93,SSW,206,0.0,1.0,55,0.00,,---,0.00,VWS V14.01,2013-05-26 17:21:00,
2013-05-26 10:31:00,70.1,53.7,29.93,West,260,0.0,1.0,56,0.00,,---,0.00,VWS V14.01,2013-05-26 17:31:00,
2013-05-26 10:36:00,70.1,53.2,29.93,WSW,247,0.0,3.0,55,0.00,,---,0.00,VWS V14.01,2013-05-26 17:36:00,
2013-05-26 10:41:00,70.6,53.2,29.93,WSW,239,0.0,2.0,54,0.00,,---,0.00,VWS V14.01,2013-05-26 17:41:00,
2013-05-26 10:51:00,71.3,53.3,29.93,WSW,253,0.0,3.0,53,0.00,,---,0.00,VWS V14.01,2013-05-26 17:51:00,
2013-05-26 11:01:00,72.1,53.0,29.93,WSW,257,0.0,1.0,51,0.00,,---,0.00,VWS V14.01,2013-05-26 18:01:00,
2013-05-26 11:06:00,71.1,53.6,29.93,South,182,0.0,1.0,54,0.00,,---,0.00,VWS V14.01,2013-05-26 18:06:00,
2013-05-26 11:16:00,72.8,54.2,29.93,West,263,0.0,1.0,52,0.00,,---,0.00,VWS V14.01,2013-05-26 18:16:00,
2013-05-26 11:26:00,73.0,53.8,29.93,SW,216,1.0,1.0,51,0.00,,---,0.00,VWS V14.01,2013-05-26 18:26:00,
2013-05-26 11:31:00,73.0,54.4,29.93,South,172,1.0,3.0,52,0.00,,---,0.00,VWS V14.01,2013-05-26 18:31:00,
2013-05-26 11:36:00,74.0,54.7,29.93,SSW,199,0.0,8.0,51,0.00,,---,0.00,VWS V14.01,2013-05-26 18:36:00,
2013-05-26 11:46:00,74.0,54.7,29.92,West,260,3.0,14.0,51,0.00,,---,0.00,VWS V14.01,2013-05-26 18:46:00,
2013-05-26 11:51:00,74.4,54.6,29.92,SSW,208,0.0,11.0,50,0.00,,---,0.00,VWS V14.01,2013-05-26 18:51:00,
2013-05-26 12:01:00,75.1,55.2,29.92,WSW,250,0.0,1.0,50,0.00,,---,0.00,VWS V14.01,2013-05-26 19:01:00,
2013-05-26 12:11:00,74.0,55.3,29.92,WSW,253,2.0,10.0,52,0.00,,---,0.00,VWS V14.01,2013-05-26 19:11:00,
2013-05-26 12:21:00,74.6,55.8,29.92,WNW,282,5.0,11.0,52,0.00,,---,0.00,VWS V14.01,2013-05-26 19:21:00,
2013-05-26 12:31:00,74.4,56.7,29.93,SW,229,0.0,13.0,54,0.00,,---,0.00,VWS V14.01,2013-05-26 19:31:00,
2013-05-26 12:36:00,74.2,56.5,29.93,SSW,196,10.0,13.0,54,0.00,,---,0.00,VWS V14.01,2013-05-26 19:36:00,
2013-05-26 12:41:00,74.0,56.3,29.93,West,281,0.0,13.0,54,0.00,,---,0.00,VWS V14.01,2013-05-26 19:41:00,
2013-05-26 12:51:00,73.2,56.1,29.93,West,272,0.0,11.0,55,0.00,,---,0.00,VWS V14.01,2013-05-26 19:51:00,
2013-05-26 12:56:00,73.5,56.9,29.93,SW,232,1.0,13.0,56,0.00,,---,0.00,VWS V14.01,2013-05-26 19:56:00,
2013-05-26 13:01:00,73.7,56.5,29.93,SSW,200,0.0,15.0,55,0.00,,---,0.00,VWS V14.01,2013-05-26 20:01:00,
2013-05-26 13:06:00,74.7,57.5,29.93,SW,224,5.0,11.0,55,0.00,,---,0.00,VWS V14.01,2013-05-26 20:06:00,
2013-05-26 13:16:00,73.5,56.4,29.93,WSW,243,9.0,15.0,55,0.00,,---,0.00,VWS V14.01,2013-05-26 20:16:00,
2013-05-26 13:21:00,73.5,56.4,29.93,SW,220,6.0,11.0,55,0.00,,---,0.00,VWS V14.01,2013-05-26 20:21:00,
2013-05-26 13:26:00,73.2,56.1,29.93,West,263,3.0,12.0,55,0.00,,---,0.00,VWS V14.01,2013-05-26 20:26:00,
2013-05-26 13:31:00,73.3,56.2,29.93,West,277,0.0,11.0,55,0.00,,---,0.00,VWS V14.01,2013-05-26 20:31:00,
2013-05-26 13:36:00,73.5,56.4,29.93,WNW,292,6.0,12.0,55,0.00,,---,0.00,VWS V14.01,2013-05-26 20:36:00,
2013-05-26 13:41:00,73.5,55.9,29.93,SSW,208,1.0,12.0,54,0.00,,---,0.00,VWS V14.01,2013-05-26 20:41:00,
2013-05-26 13:46:00,74.7,57.0,29.93,South,169,16.0,16.0,54,0.00,,---,0.00,VWS V14.01,2013-05-26 20:46:00,
2013-05-26 13:56:00,74.4,55.7,29.93,WSW,241,5.0,12.0,52,0.00,,---,0.00,VWS V14.01,2013-05-26 20:56:00,
2013-05-26 14:06:00,73.9,55.7,29.92,West,267,2.0,13.0,53,0.00,,---,0.00,VWS V14.01,2013-05-26 21:06:00,
2013-05-26 14:11:00,74.0,55.8,29.92,West,260,8.0,13.0,53,0.00,,---,0.00,VWS V14.01,2013-05-26 21:11:00,
2013-05-26 14:16:00,73.7,55.5,29.93,SW,222,0.0,14.0,53,0.00,,---,0.00,VWS V14.01,2013-05-26 21:16:00,
2013-05-26 14:21:00,74.4,55.1,29.93,SW,224,3.0,13.0,51,0.00,,---,0.00,VWS V14.01,2013-05-26 21:21:00,
2013-05-26 14:26:00,75.1,55.8,29.93,SSW,200,0.0,8.0,51,0.00,,---,0.00,VWS V14.01,2013-05-26 21:26:00,
2013-05-26 14:36:00,74.2,55.5,29.93,WSW,246,7.0,13.0,52,0.00,,---,0.00,VWS V14.01,2013-05-26 21:36:00,
2013-05-26 14:41:00,74.6,55.3,29.93,WSW,251,0.0,12.0,51,0.00,,---,0.00,VWS V14.01,2013-05-26 21:41:00,
2013-05-26 14:46:00,74.2,55.5,29.92,WSW,248,11.0,13.0,52,0.00,,---,0.00,VWS V14.01,2013-05-26 21:46:00,
2013-05-26 14:51:00,74.0,55.3,29.92,SW,223,0.0,13.0,52,0.00,,---,0.00,VWS V14.01,2013-05-26 21:51:00,
2013-05-26 14:56:00,74.6,55.3,29.92,WSW,256,0.0,10.0,51,0.00,,---,0.00,VWS V14.01,2013-05-26 21:56:00,
2013-05-26 15:01:00,74.4,55.1,29.92,SSW,210,0.0,17.0,51,0.00,,---,0.00,VWS V14.01,2013-05-26 22:01:00,
2013-05-26 15:06:00,74.6,54.8,29.92,SSW,198,7.0,12.0,50,0.00,,---,0.00,VWS V14.01,2013-05-26 22:06:00,
2013-05-26 15:11:00,74.0,54.7,29.92,WSW,246,8.0,13.0,51,0.00,,---,0.00,VWS V14.01,2013-05-26 22:11:00,
2013-05-26 15:16:00,73.5,54.8,29.92,WSW,251,7.0,14.0,52,0.00,,---,0.00,VWS V14.01,2013-05-26 22:16:00,
2013-05-26 15:21:00,73.5,55.3,29.92,WSW,254,7.0,13.0,53,0.00,,---,0.00,VWS V14.01,2013-05-26 22:21:00,
2013-05-26 15:26:00,73.7,55.0,29.92,SW,233,1.0,14.0,52,0.00,,---,0.00,VWS V14.01,2013-05-26 22:26:00,
2013-05-26 15:31:00,74.0,55.3,29.92,SSW,199,0.0,13.0,52,0.00,,---,0.00,VWS V14.01,2013-05-26 22:31:00,
2013-05-26 15:41:00,73.7,54.5,29.92,West,277,11.0,13.0,51,0.00,,---,0.00,VWS V14.01,2013-05-26 22:41:00,
2013-05-26 15:46:00,73.0,54.9,29.92,SW,219,0.0,16.0,53,0.00,,---,0.00,VWS V14.01,2013-05-26 22:46:00,
2013-05-26 15:51:00,73.3,54.6,29.92,West,267,0.0,13.0,52,0.00,,---,0.00,VWS V14.01,2013-05-26 22:51:00,
2013-05-26 16:01:00,73.3,54.1,29.92,WSW,248,0.0,13.0,51,0.00,,---,0.00,VWS V14.01,2013-05-26 23:01:00,
2013-05-26 16:06:00,73.5,54.3,29.92,West,272,6.0,8.0,51,0.00,,---,0.00,VWS V14.01,2013-05-26 23:06:00,
2013-05-26 16:11:00,73.3,54.6,29.92,West,264,5.0,10.0,52,0.00,,---,0.00,VWS V14.01,2013-05-26 23:11:00,
2013-05-26 16:21:00,73.5,53.7,29.92,SW,224,0.0,9.0,50,0.00,,---,0.00,VWS V14.01,2013-05-26 23:21:00,
2013-05-26 16:26:00,73.3,54.1,29.92,WSW,246,0.0,8.0,51,0.00,,---,0.00,VWS V14.01,2013-05-26 23:26:00,
2013-05-26 16:36:00,73.7,54.5,29.91,SW,217,0.0,7.0,51,0.00,,---,0.00,VWS V14.01,2013-05-26 23:36:00,
2013-05-26 16:41:00,74.0,54.2,29.91,WSW,251,0.0,5.0,50,0.00,,---,0.00,VWS V14.01,2013-05-26 23:41:00,
2013-05-26 16:51:00,73.3,54.1,29.91,WSW,240,6.0,11.0,51,0.00,,---,0.00,VWS V14.01,2013-05-26 23:51:00,
2013-05-26 16:56:00,73.2,54.0,29.91,WSW,237,0.0,8.0,51,0.00,,---,0.00,VWS V14.01,2013-05-26 23:56:00,
2013-05-26 17:06:00,73.3,54.6,29.91,WSW,258,0.0,11.0,52,0.00,,---,0.00,VWS V14.01,2013-05-27 00:06:00,
2013-05-26 17:11:00,73.2,54.0,29.91,West,261,10.0,10.0,51,0.00,,---,0.00,VWS V14.01,2013-05-27 00:11:00,
2013-05-26 17:16:00,73.2,54.0,29.91,West,274,8.0,11.0,51,0.00,,---,0.00,VWS V14.01,2013-05-27 00:16:00,
2013-05-26 17:26:00,73.0,53.8,29.91,West,264,1.0,10.0,51,0.00,,---,0.00,VWS V14.01,2013-05-27 00:26:00,
2013-05-26 17:31:00,72.8,53.6,29.91,West,264,1.0,11.0,51,0.00,,---,0.00,VWS V14.01,2013-05-27 00:31:00,
2013-05-26 17:36:00,72.8,54.2,29.91,WNW,287,0.0,11.0,52,0.00,,---,0.00,VWS V14.01,2013-05-27 00:36:00,
2013-05-26 17:46:00,72.3,53.7,29.91,WSW,256,0.0,8.0,52,0.00,,---,0.00,VWS V14.01,2013-05-27 00:46:00,
2013-05-26 17:51:00,72.3,53.7,29.91,West,265,0.0,7.0,52,0.00,,---,0.00,VWS V14.01,2013-05-27 00:51:00,
2013-05-26 18:01:00,72.3,53.7,29.90,WSW,248,0.0,6.0,52,0.00,,---,0.00,VWS V14.01,2013-05-27 01:01:00,
2013-05-26 18:11:00,71.8,53.8,29.90,WSW,251,3.0,8.0,53,0.00,,---,0.00,VWS V14.01,2013-05-27 01:11:00,
2013-05-26 18:21:00,71.6,53.6,29.90,West,264,0.0,7.0,53,0.00,,---,0.00,VWS V14.01,2013-05-27 01:21:00,
2013-05-26 18:26:00,71.3,53.3,29.90,WSW,257,0.0,6.0,53,0.00,,---,0.00,VWS V14.01,2013-05-27 01:26:00,
2013-05-26 18:36:00,70.4,53.0,29.90,SW,232,1.0,7.0,54,0.00,,---,0.00,VWS V14.01,2013-05-27 01:36:00,
2013-05-26 18:46:00,69.8,52.9,29.90,West,265,0.0,0.0,55,0.00,,---,0.00,VWS V14.01,2013-05-27 01:46:00,
2013-05-26 18:51:00,69.6,53.2,29.90,West,265,0.0,0.0,56,0.00,,---,0.00,VWS V14.01,2013-05-27 01:51:00,
2013-05-26 18:56:00,69.4,53.0,29.90,West,265,0.0,0.0,56,0.00,,---,0.00,VWS V14.01,2013-05-27 01:56:00,
2013-05-26 19:01:00,69.1,52.8,29.90,West,265,0.0,0.0,56,0.00,,---,0.00,VWS V14.01,2013-05-27 02:01:00,
2013-05-26 19:06:00,68.6,52.8,29.90,West,265,0.0,0.0,57,0.00,,---,0.00,VWS V14.01,2013-05-27 02:06:00,
2013-05-26 19:11:00,68.3,52.5,29.90,West,265,0.0,0.0,57,0.00,,---,0.00,VWS V14.01,2013-05-27 02:11:00,
2013-05-26 19:16:00,68.1,52.8,29.90,West,265,0.0,0.0,58,0.00,,---,0.00,VWS V14.01,2013-05-27 02:16:00,
2013-05-26 19:21:00,67.9,52.6,29.90,West,265,0.0,0.0,58,0.00,,---,0.00,VWS V14.01,2013-05-27 02:21:00,
2013-05-26 19:26:00,67.6,52.8,29.90,West,265,0.0,0.0,59,0.00,,---,0.00,VWS V14.01,2013-05-27 02:26:00,
2013-05-26 19:31:00,67.4,52.6,29.90,West,265,0.0,0.0,59,0.00,,---,0.00,VWS V14.01,2013-05-27 02:31:00,
2013-05-26 19:36:00,67.1,52.8,29.90,West,265,0.0,0.0,60,0.00,,---,0.00,VWS V14.01,2013-05-27 02:36:00,
2013-05-26 19:46:00,66.6,52.8,29.91,West,265,0.0,0.0,61,0.00,,---,0.00,VWS V14.01,2013-05-27 02:46:00,
2013-05-26 19:56:00,66.1,52.7,29.91,West,265,0.0,0.0,62,0.00,,---,0.00,VWS V14.01,2013-05-27 02:56:00,
2013-05-26 20:01:00,65.6,52.2,29.91,West,265,0.0,0.0,62,0.00,,---,0.00,VWS V14.01,2013-05-27 03:01:00,
2013-05-26 20:11:00,64.8,52.3,29.91,West,265,0.0,0.0,64,0.00,,---,0.00,VWS V14.01,2013-05-27 03:11:00,
2013-05-26 20:16:00,64.7,52.3,29.91,West,265,0.0,0.0,64,0.00,,---,0.00,VWS V14.01,2013-05-27 03:16:00,
2013-05-26 20:21:00,64.3,51.9,29.91,West,265,0.0,0.0,64,0.00,,---,0.00,VWS V14.01,2013-05-27 03:21:00,
2013-05-26 20:26:00,64.0,52.0,29.91,West,265,0.0,0.0,65,0.00,,---,0.00,VWS V14.01,2013-05-27 03:26:00,
2013-05-26 20:31:00,63.7,51.7,29.92,West,265,0.0,0.0,65,0.00,,---,0.00,VWS V14.01,2013-05-27 03:31:00,
2013-05-26 20:41:00,63.1,51.6,29.92,West,265,0.0,0.0,66,0.00,,---,0.00,VWS V14.01,2013-05-27 03:41:00,
2013-05-26 20:46:00,62.6,51.5,29.92,West,265,0.0,0.0,67,0.00,,---,0.00,VWS V14.01,2013-05-27 03:46:00,
2013-05-26 20:56:00,62.0,50.9,29.92,West,265,0.0,0.0,67,0.00,,---,0.00,VWS V14.01,2013-05-27 03:56:00,
2013-05-26 21:01:00,61.6,50.5,29.92,West,265,0.0,0.0,67,0.00,,---,0.00,VWS V14.01,2013-05-27 04:01:00,
2013-05-26 21:06:00,61.3,50.7,29.92,West,265,0.0,0.0,68,0.00,,---,0.00,VWS V14.01,2013-05-27 04:06:00,
2013-05-26 21:11:00,61.0,50.4,29.92,West,265,0.0,0.0,68,0.00,,---,0.00,VWS V14.01,2013-05-27 04:11:00,
2013-05-26 21:16:00,60.7,50.1,29.92,West,265,0.0,0.0,68,0.00,,---,0.00,VWS V14.01,2013-05-27 04:16:00,
2013-05-26 21:21:00,60.4,50.2,29.92,West,265,0.0,0.0,69,0.00,,---,0.00,VWS V14.01,2013-05-27 04:21:00,
2013-05-26 21:26:00,60.1,49.9,29.92,West,265,0.0,0.0,69,0.00,,---,0.00,VWS V14.01,2013-05-27 04:26:00,
2013-05-26 21:31:00,59.8,50.0,29.92,West,265,0.0,0.0,70,0.00,,---,0.00,VWS V14.01,2013-05-27 04:31:00,
2013-05-26 21:36:00,59.6,49.8,29.92,West,265,0.0,0.0,70,0.00,,---,0.00,VWS V14.01,2013-05-27 04:36:00,
2013-05-26 21:41:00,59.3,49.5,29.92,West,265,0.0,0.0,70,0.00,,---,0.00,VWS V14.01,2013-05-27 04:41:00,
2013-05-26 21:46:00,59.2,49.4,29.92,West,265,0.0,0.0,70,0.00,,---,0.00,VWS V14.01,2013-05-27 04:46:00,
2013-05-26 21:51:00,58.9,49.5,29.92,West,265,0.0,0.0,71,0.00,,---,0.00,VWS V14.01,2013-05-27 04:51:00,
2013-05-26 21:56:00,58.7,49.3,29.92,West,265,0.0,0.0,71,0.00,,---,0.00,VWS V14.01,2013-05-27 04:56:00,
2013-05-26 22:06:00,58.3,49.0,29.92,West,265,0.0,0.0,71,0.00,,---,0.00,VWS V14.01,2013-05-27 05:06:00,
2013-05-26 22:11:00,58.1,49.1,29.92,West,265,0.0,0.0,72,0.00,,---,0.00,VWS V14.01,2013-05-27 05:11:00,
2013-05-26 22:16:00,58.0,49.0,29.92,West,265,0.0,0.0,72,0.00,,---,0.00,VWS V14.01,2013-05-27 05:16:00,
2013-05-26 22:21:00,57.8,48.8,29.92,West,265,0.0,0.0,72,0.00,,---,0.00,VWS V14.01,2013-05-27 05:21:00,
2013-05-26 22:26:00,57.6,48.7,29.92,West,265,0.0,0.0,72,0.00,,---,0.00,VWS V14.01,2013-05-27 05:26:00,
2013-05-26 22:36:00,57.3,48.7,29.92,West,265,0.0,0.0,73,0.00,,---,0.00,VWS V14.01,2013-05-27 05:36:00,
2013-05-26 22:41:00,57.2,48.6,29.92,West,265,0.0,0.0,73,0.00,,---,0.00,VWS V14.01,2013-05-27 05:41:00,
2013-05-26 22:46:00,57.0,48.4,29.92,West,265,0.0,0.0,73,0.00,,---,0.00,VWS V14.01,2013-05-27 05:46:00,
2013-05-26 22:51:00,56.9,48.7,29.92,West,265,0.0,0.0,74,0.00,,---,0.00,VWS V14.01,2013-05-27 05:51:00,
2013-05-26 22:56:00,56.7,48.5,29.92,West,265,0.0,0.0,74,0.00,,---,0.00,VWS V14.01,2013-05-27 05:56:00,
2013-05-26 23:01:00,56.6,48.4,29.92,West,265,0.0,0.0,74,0.00,,---,0.00,VWS V14.01,2013-05-27 06:01:00,
2013-05-26 23:11:00,56.3,48.5,29.92,West,265,0.0,0.0,75,0.00,,---,0.00,VWS V14.01,2013-05-27 06:11:00,
2013-05-26 23:16:00,56.2,48.4,29.92,West,265,0.0,0.0,75,0.00,,---,0.00,VWS V14.01,2013-05-27 06:16:00,
2013-05-26 23:26:00,55.9,48.1,29.92,West,265,0.0,0.0,75,0.00,,---,0.00,VWS V14.01,2013-05-27 06:26:00,
2013-05-26 23:36:00,55.7,48.3,29.91,West,265,0.0,0.0,76,0.00,,---,0.00,VWS V14.01,2013-05-27 06:36:00,
2013-05-26 23:41:00,55.6,48.5,29.91,West,265,0.0,0.0,77,0.00,,---,0.00,VWS V14.01,2013-05-27 06:41:00,
2013-05-26 23:51:00,55.1,48.0,29.91,West,265,0.0,0.0,77,0.00,,---,0.00,VWS V14.01,2013-05-27 06:51:00,
2013-05-26 23:56:00,55.1,48.4,29.91,West,265,0.0,0.0,78,0.00,,---,0.00,VWS V14.01,2013-05-27 06:56:00,